Location: Unspecified
(0.0000°N, 0.0000°E)
Time: 03:28:47
(UTC+00:00)

Explorer 7 - Pass Details

Date: 24 July 2019
Orbit: 485 x 680 km, 50.3° (Epoch: 16 August)

Event Time Altitude Azimuth Distance (km) Brightness Sun altitude
Rises 04:49:26 0° 343° (NNW) 2,693 10.4 -18.1°
Reaches altitude 10° 04:51:53 10° 357° (N) 1,839 9.7 -17.5°
Maximum altitude 04:55:25 26° 54° (NE) 1,157 9.3 -16.7°
Drops below altitude 10° 04:59:09 10° 111° (ESE) 1,951 10.3 -15.8°
Sets 05:01:49 0° 123° (ESE) 2,896 11.0 -15.2°
